CAPE
0 0 0 0 0 0 0 0 0 0 0 0 0 0 0 0 0 0 0 0 0 0 0 0 0 0 0 0 0 0 0 0 0 0 0 0 0 0 0 0 0 0 0 0
0 0 0 0 0 0 0 0 0 0 0 0 0 0 0 0 0 0 0 0 0 0 0 0 0 0 0 0 0 0 0 0 0 0 0 0 0 0 0 0 0 0 0 0
0 0 0 0 0 0 0 0 0 0 0 0 0 0 0 0 0 0 0 0 0 0 0 0 0 0 0 0 0 0 0 0 0 0 0 0 0 0 0 0 0 0 0 0
0 0 0 0 0 0 0 0 0 0 0 0 0 0 0 0 0 0 0 0 0 0 0 0 0 0 0 0 0 0 0 0 0 0 0 0 0 0 0 0 0 0 0 0
0 0 0 0 0 0 0 0 0 0 0 0 0 0 0 0 0 0 0 0 0 0 0 0 0 0 0 0 0 0 0 0 0 0 0 0 0 0 0 0 0 0 0 0
0 0 0 0 0 0 0 0 0 0 0 0 0 0 0 0 0 0 0 0 0 0 0 0 0 0 0 0 0 0 0 0 0 0 0 0 0 0 0 0 0 0 0 0
0 0 0 0 0 0 0 0 0 0 0 0 0 0 0 0 0 0 0 0 0 0 0 0 0 0 0 0 0 0 0 0 0 0 0 0 0 0 0 0 0 0 0 0
0 0 0 0 0 0 0 0 0 0 0 0 0 0 0 0 0 0 0 0 0 0 0 0 0 0 0 0 0 0 0 0 0 0 0 0 0 0 0 0 0 0 0 0
0 0 0 0 0 0 0 0 0 0 0 0 0 0 0 0 0 0 0 0 0 0 0 0 0 0 0 0 0 0 0 0 0 0 0 0 0 0 0 0 0 0 0 0
0 0 0 0 0 0 0 0 0 0 0 0 0 0 0 0 0 0 0 0 0 0 0 0 0 0 0 0 0 0 0 0 0 0 0 0 0 0 0 0 0 0 0 0
0 0 0 0 0 0 0 0 0 0 0 0 0 0 0 0 0 0 0 0 0 0 0 0 0 0 0 0 0 0 0 0 0 0 0 0 0 0 0 0 0 0 0 0
0 0 0 0 0 0 0 0 0 0 0 0 0 0 0 0 0 0 0 0 0 0 0 0 0 0 0 0 0 0 0 0 0 0 0 0 0 0 0 0 0 0 0 0
0 0 0 0 0 0 0 0 0 0 0 0 0 0 0 0 0 0 0 0 0 0 0 0 0 0 0 0 0 0 0 0 0 0 0 0 0 0 0 0 0 0 0 0
0 0 0 0 0 0 0 0 0 0 0 0 0 0 0 0 0 0 0 0 0 0 0 0 0 0 0 0 0 0 0 0 0 0 0 0 0 0 0 0 0 0 0 0
0 0 0 0 0 0 0 0 0 0 0 0 0 0 0 0 0 0 0 0 0 0 0 0 0 0 0 0 0 0 0 0 0 0 0 0 0 0 0 0 0 0 0 0
0 0 0 0 0 0 0 0 0 0 0 0 0 0 0 0 0 0 0 0 0 0 0 0 0 0 0 0 0 0 0 0 0 0 0 0 0 0 0 0 0 0 0 0
0 0 0 0 0 0 0 0 0 0 0 0 0 0 0 0 0 0 0 0 0 0 0 0 0 0 0 0 0 0 0 0 0 0 0 0 0 0 0 0 0 0 0 0
0 0 1 0 0 0 0 0 0 0 0 0 0 0 0 0 0 0 0 0 0 0 0 0 0 0 0 0 0 0 0 0 0 0 0 0 0 0 0 0 0 0 0 0
0 0 0 0 0 0 0 0 0 0 0 0 0 0 0 0 0 0 0 0 0 0 0 0 0 0 0 0 0 0 0 0 0 0 0 0 0 0 0 0 0 0 0 0
0 0 1 0 0 0 0 0 0 0 0 0 0 0 0 0 0 0 0 0 0 0 0 0 0 0 0 0 0 0 0 0 0 0 0 0 0 0 0 0 0 0 0 0
1 0 0 0 0 0 0 0 0 0 0 0 0 0 0 0 0 0 0 0 0 0 0 0 0 0 0 0 0 0 0 0 0 0 0 0 0 0 0 0 0 0 0 0
0 0 0 0 0 0 0 0 0 0 0 0 0 0 0 0 0 0 0 0 0 0 0 0 0 0 0 0 0 0 0 0 0 0 0 0 0 0 0 0 0 0 0 0
0 0 0 0 0 0 0 0 0 0 0 0 0 0 0 0 0 0 0 0 0 0 0 0 0 0 0 0 0 0 0 0 0 0 0 0 0 0 0 0 0 0 0 0
0 0 0 0 0 0 0 0 0 0 0 0 0 0 0 0 0 0 0 0 0 0 0 0 0 0 0 0 0 0 0 0 0 0 0 0 0 0 0 0 0 0 0 0
0 0 0 0 0 0 0 0 0 0 0 0 0 0 0 0 0 0 0 0 0 0 0 0 0 0 0 0 0 0 0 0 0 0 0 0 0 0 0 0 0 0 0 0
0 0 0 0 0 0 0 0 0 0 0 0 0 0 0 0 0 0 0 0 0 0 0 0 0 0 0 0 0 0 0 0 0 0 0 0 0 0 0 0 0 0 0 0
CIN
0 0 0 0 0 0 0 0 0 0 0 0 0 0 0 0 0 0 0 0 0 0 0 0 0 0 0 0 0 0 0 0 0 0 0 0 0 0 0 0 0 0 0 0
0 0 0 0 0 0 0 0 0 0 0 0 0 0 0 0 0 0 0 0 0 0 0 0 0 0 0 0 0 0 0 0 0 0 0 0 0 0 0 0 0 0 0 0
0 0 0 0 0 0 0 0 0 0 0 0 0 0 0 0 0 0 0 0 0 0 0 0 0 0 0 0 0 0 0 0 0 0 0 0 0 0 0 0 0 0 0 0
0 0 0 0 0 0 0 0 0 0 0 0 0 0 0 0 0 0 0 0 0 0 0 0 0 0 0 0 0 0 0 0 0 0 0 0 0 0 0 0 0 0 0 0
0 0 0 0 0 0 0 0 0 0 0 0 0 0 0 0 0 0 0 0 0 0 0 0 0 0 0 0 0 0 0 0 0 0 0 0 0 0 0 0 0 0 0 0
0 0 0 0 0 0 0 0 0 0 0 0 0 0 0 0 0 0 0 0 0 0 0 0 0 0 0 0 0 0 0 0 0 0 0 0 0 0 0 0 0 0 0 0
0 0 0 0 0 0 0 0 0 0 0 0 0 0 0 0 0 0 0 0 0 0 0 0 0 0 0 0 0 0 0 0 0 0 0 0 0 0 0 0 0 0 0 0
0 0 0 0 0 0 0 0 0 0 0 0 0 0 0 0 0 0 0 0 0 0 0 0 0 0 0 0 0 0 0 0 0 0 0 0 0 0 0 0 0 0 0 0
0 0 0 0 0 0 0 0 0 0 0 0 0 0 0 0 0 0 0 0 0 0 0 0 0 0 0 0 0 0 0 0 0 0 0 0 0 0 0 0 0 0 0 0
0 0 0 0 0 0 0 0 0 0 0 0 0 0 0 0 0 0 0 0 0 0 0 0 0 0 0 0 0 0 0 0 0 0 0 0 0 0 0 0 0 0 0 0
0 0 0 0 0 0 0 0 0 0 0 0 0 0 0 0 0 0 0 0 0 0 0 0 0 0 0 0 0 0 0 0 0 0 0 0 0 0 0 0 0 0 0 0
0 0 0 0 0 0 0 0 0 0 0 0 0 0 0 0 0 0 0 0 0 0 0 0 0 0 0 0 0 0 0 0 0 0 0 0 0 0 0 0 0 0 0 0
0 0 0 0 0 0 0 0 0 0 0 0 0 0 0 0 0 0 0 0 0 0 0 0 0 0 0 0 0 0 0 0 0 0 0 0 0 0 0 0 0 0 0 0
0 0 0 0 0 0 0 0 0 0 0 0 0 0 0 0 0 0 0 0 0 0 0 0 0 0 0 0 0 0 0 0 0 0 0 0 0 0 0 0 0 0 0 0
0 0 0 0 0 0 0 0 0 0 0 0 0 0 0 0 0 0 0 0 0 0 0 0 0 0 0 0 0 0 0 0 0 0 0 0 0 0 0 0 0 0 0 0
0 0 0 0 0 0 0 0 0 0 0 0 0 0 0 0 0 0 0 0 0 0 0 0 0 0 0 0 0 0 0 0 0 0 0 0 0 0 0 0 0 0 0 0
0 0 0 0 0 0 0 0 0 0 0 0 0 0 0 0 0 0 0 0 0 0 0 0 0 0 0 0 0 0 0 0 0 0 0 0 0 0 0 0 0 0 0 0
0 0 0 0 0 0 0 0 0 0 0 0 0 0 0 0 0 0 0 0 0 0 0 0 0 0 0 0 0 0 0 0 0 0 0 0 0 0 0 0 0 0 0 0
0 0 0 0 0 0 0 0 0 0 0 0 0 0 0 0 0 0 0 0 0 0 0 0 0 0 0 0 0 0 0 0 0 0 0 0 0 0 0 0 0 0 0 0
0 0 0 0 0 0 0 0 0 0 0 0 0 0 0 0 0 0 0 0 0 0 0 0 0 0 0 0 0 0 0 0 0 0 0 0 0 0 0 0 0 0 0 0
0 0 0 0 0 0 0 0 0 0 0 0 0 0 0 0 0 0 0 0 0 0 0 0 0 0 0 0 0 0 0 0 0 0 0 0 0 0 0 0 0 0 0 0
0 0 0 -1 0 0 0 0 0 0 0 0 0 0 0 0 0 0 0 0 0 0 0 0 0 0 0 0 0 0 0 0 0 0 0 0 0 0 0 0 0 0 0 0
0 0 0 0 0 0 0 0 0 0 0 0 0 0 0 0 0 0 0 0 0 0 0 0 0 0 0 0 0 0 0 0 0 0 0 0 0 0 0 0 0 0 0 0
0 0 0 0 0 0 0 0 0 0 0 0 0 0 0 0 0 0 0 0 0 0 0 0 0 0 0 0 0 0 0 0 0 0 0 0 0 0 0 0 0 0 0 0
0 0 0 0 0 0 0 0 0 0 0 0 0 0 0 0 0 0 0 0 0 0 0 0 0 0 0 0 0 0 0 0 0 0 0 0 0 0 0 0 0 0 0 0
0 0 0 0 0 0 0 0 0 0 0 0 0 0 0 0 0 0 0 0 0 0 0 0 0 0 0 0 0 0 0 0 0 0 0 0 0 0 0 0 0 0 0 0
Wind_Speed
18 16 11 8 13 30 22 24 26 21 20 18 9 15 11 9 10 11 15 15 13 14 9 9 9 7 6 5 4 3 3 5 7 9 12 14 15 17 20 23 26 29 32 33
17 31 26 21 18 21 22 19 17 20 19 19 34 27 16 13 13 17 12 15 15 9 8 9 9 9 8 8 6 4 3 4 6 9 11 14 16 17 19 22 25 28 31 32
19 23 20 19 18 16 18 15 23 24 26 20 35 30 20 21 13 6 9 9 9 10 10 10 10 10 9 9 8 6 4 3 5 9 11 13 15 16 17 21 25 27 29 31
24 20 19 19 21 17 20 20 21 23 27 28 25 38 28 28 22 17 13 4 5 7 8 9 10 11 10 9 7 6 4 3 5 7 10 12 14 16 19 21 24 25 27 30
22 20 18 20 23 16 25 20 20 21 24 30 20 25 26 25 25 20 17 15 10 6 4 6 8 9 9 8 7 6 4 3 4 6 8 11 13 15 17 20 23 25 26 28
24 22 22 21 19 22 13 19 22 23 24 28 23 22 25 21 21 17 21 20 17 10 4 2 3 4 6 6 6 5 5 3 3 4 7 9 11 13 16 20 23 24 25 27
25 25 23 20 20 18 19 19 25 25 20 22 21 21 17 23 17 19 20 19 17 12 9 5 1 2 4 6 6 5 5 4 2 4 6 8 10 13 16 19 22 24 25 27
29 34 23 20 25 24 17 21 23 27 22 25 21 22 22 22 21 20 18 18 15 13 11 6 2 0 2 4 5 5 5 3 3 3 5 7 9 12 15 18 20 22 24 25
30 31 24 24 25 22 21 23 23 29 29 30 25 29 31 21 21 19 19 14 15 12 10 7 4 2 1 3 4 4 4 3 3 2 4 6 8 10 13 16 19 21 22 24
30 33 27 26 24 25 24 18 25 24 29 24 23 27 22 18 16 19 18 13 11 11 11 9 6 4 3 0 2 2 3 3 3 2 3 5 7 9 12 15 18 20 21 23
29 32 30 24 27 25 25 27 24 25 25 28 30 28 22 21 18 16 18 16 13 11 11 10 9 8 6 4 1 2 2 3 2 2 3 4 6 8 11 14 16 19 20 23
29 30 34 32 26 26 27 28 25 30 30 29 28 29 22 21 17 17 20 18 16 16 12 10 10 8 7 6 3 3 3 4 3 3 3 4 5 7 10 12 15 18 20 21
23 31 36 35 33 30 32 28 29 31 33 34 31 30 21 20 22 23 21 21 20 17 15 14 12 11 10 8 6 6 5 5 4 3 3 3 4 6 8 10 14 17 19 20
19 30 37 43 35 25 31 30 29 31 37 39 35 38 35 33 29 25 25 26 23 21 20 19 17 15 13 11 10 8 8 6 6 5 3 3 3 4 6 9 12 15 17 19
25 36 34 37 33 33 32 31 27 33 35 40 41 41 32 31 33 37 35 33 29 27 26 25 23 20 17 15 14 11 10 8 6 6 4 3 2 3 5 8 11 14 16 18
27 37 35 40 35 39 46 42 39 37 37 41 44 45 37 36 39 39 37 37 37 36 33 30 27 22 20 18 15 12 10 9 7 6 5 3 1 2 3 6 9 12 15 17
26 29 32 41 35 39 51 43 39 39 37 38 46 44 40 41 40 40 43 42 43 41 37 33 27 22 19 15 13 12 10 8 7 7 6 5 2 1 1 4 7 10 13 16
26 27 28 34 29 44 34 27 28 31 30 29 36 38 36 34 35 34 33 37 40 38 36 33 28 23 18 15 13 11 9 9 8 8 7 6 4 3 1 3 5 8 11 14
24 25 30 35 37 41 42 32 29 30 36 27 29 32 32 28 31 37 32 26 26 27 25 24 21 15 10 8 7 7 7 7 8 9 9 8 6 4 2 1 3 6 9 12
27 27 31 29 37 42 30 24 20 19 38 25 23 26 25 21 29 25 17 18 20 21 22 21 15 10 6 3 0 1 4 6 8 9 10 8 7 5 4 1 1 4 7 11
31 32 38 37 39 40 30 20 15 32 32 27 23 19 17 17 18 20 17 20 20 21 21 17 15 12 8 5 3 1 1 4 5 6 7 7 6 6 5 2 1 3 6 9
33 32 36 36 38 47 23 21 28 28 22 19 15 13 11 15 19 18 17 21 20 18 18 17 15 13 11 7 4 3 3 3 3 5 8 8 7 6 6 4 2 2 5 8
40 35 37 34 38 29 22 25 22 23 23 23 21 21 21 22 22 20 18 19 19 21 20 16 16 15 12 8 7 6 6 3 2 5 8 9 8 7 7 6 4 2 3 6
38 34 39 36 40 38 33 29 27 27 29 27 25 25 29 32 28 27 26 28 27 24 20 17 18 18 15 11 10 8 5 2 2 4 7 8 9 8 8 6 5 3 2 4
35 30 40 43 44 36 33 33 33 33 31 32 32 34 34 34 34 34 35 33 31 26 24 21 20 19 18 14 10 8 3 2 2 4 7 9 8 8 8 7 6 3 1 3
34 36 38 43 38 38 36 32 30 31 32 33 33 34 32 32 33 32 32 31 30 29 26 25 24 22 19 15 13 9 6 4 4 5 7 10 10 8 8 8 5 2 2 3
Wind_Direction
271 275 193 197 190 273 298 297 302 316 323 328 240 242 259 291 267 249 231 226 226 222 218 212 209 209 218 222 226 243 295 331 345 350 354 356 357 1 3 4 5 6 6 6
275 252 273 284 287 291 296 307 311 317 326 329 300 251 259 293 254 234 238 229 225 241 235 220 213 210 216 215 218 232 272 316 337 348 354 357 359 1 2 5 6 7 7 8
271 280 281 284 288 293 298 302 306 310 315 324 305 288 334 337 332 296 237 244 254 253 247 224 219 218 220 219 218 227 249 307 334 346 354 357 359 0 3 4 5 7 9 10
274 280 284 284 284 289 294 303 305 309 310 311 325 298 321 326 332 337 338 325 285 268 254 233 223 221 220 220 218 223 242 289 327 343 349 352 353 357 2 4 6 8 11 12
275 278 276 281 287 289 292 304 307 311 310 309 322 321 323 333 334 345 353 352 347 329 254 239 226 228 222 218 221 224 235 273 319 337 348 353 355 0 4 5 7 9 12 14
275 283 282 285 291 291 302 304 306 308 309 304 314 318 324 335 340 349 347 347 352 355 354 297 231 216 216 214 217 222 234 254 300 333 346 350 356 0 3 5 7 9 12 14
273 274 281 283 286 292 291 295 299 304 306 305 316 313 313 321 328 334 336 339 348 2 6 3 0 190 194 200 208 220 224 245 274 324 344 353 358 2 4 5 7 9 12 13
264 270 267 273 278 282 274 286 290 301 307 312 316 311 321 326 326 329 336 338 339 340 350 360 3 351 198 201 203 214 219 238 262 310 340 355 1 3 5 7 9 11 13 14
267 268 275 275 275 277 279 279 293 294 301 305 305 309 311 316 314 320 327 326 340 347 355 6 16 17 130 184 196 212 218 233 249 294 339 352 1 5 6 9 11 13 15 16
269 270 275 274 275 275 280 287 286 290 296 299 308 309 314 331 334 335 339 339 340 346 351 357 356 350 343 282 186 219 235 241 256 293 334 353 2 5 8 10 11 13 16 17
264 267 272 274 268 267 273 274 281 289 290 297 302 305 314 318 327 326 336 342 334 329 330 339 339 334 330 329 290 268 248 257 262 288 328 353 3 7 8 9 11 13 17 18
255 268 267 270 279 278 273 272 269 277 287 290 294 287 310 319 326 331 329 332 333 329 325 326 329 326 319 309 284 282 283 275 265 283 316 340 1 6 6 9 12 13 16 19
253 263 265 273 277 276 273 270 273 276 284 281 285 296 313 312 306 309 318 325 324 324 320 317 314 309 309 306 294 283 285 284 269 267 289 320 343 357 5 10 12 13 16 19
261 264 265 267 281 283 276 271 264 268 274 280 272 287 292 297 301 300 305 315 318 317 315 312 307 300 296 294 296 282 276 279 266 255 262 291 321 354 8 13 13 14 17 20
264 266 268 271 277 280 282 281 272 266 269 275 287 286 288 291 294 295 296 301 304 305 306 305 302 298 292 289 293 287 276 272 259 246 255 265 321 359 10 15 12 14 17 21
265 268 272 272 276 279 278 278 277 275 276 279 283 280 288 290 294 293 294 295 296 300 302 301 299 295 287 282 283 280 270 266 247 240 238 237 281 338 11 17 13 14 17 21
265 268 273 274 279 280 277 276 274 278 279 279 279 285 290 287 285 286 290 293 296 299 301 301 297 293 289 280 277 272 266 262 251 239 235 215 229 225 23 20 15 14 17 20
264 265 271 277 279 273 285 296 290 281 283 277 285 289 290 290 294 296 296 297 299 301 303 303 301 297 287 282 276 272 259 244 243 231 216 211 204 191 127 22 12 14 19 21
261 262 273 272 273 282 286 289 290 289 291 286 286 291 291 296 302 299 303 305 307 313 316 319 319 316 306 282 270 260 248 240 235 220 211 200 193 191 186 0 14 15 22 23
258 262 264 275 275 278 293 305 303 300 295 307 298 295 294 301 299 306 323 328 330 331 331 333 345 357 8 9 69 210 224 227 227 210 200 195 195 197 202 221 18 26 30 24
258 259 258 264 275 281 285 298 303 290 297 307 309 306 302 302 307 318 321 324 328 331 335 343 347 352 4 22 33 31 244 222 215 209 200 201 203 194 186 186 114 47 40 28
257 259 263 266 272 277 287 288 282 296 305 316 316 315 311 314 315 313 315 320 323 332 339 347 344 349 350 356 9 352 314 305 269 198 190 191 190 188 181 180 161 84 47 28
262 261 265 261 271 288 281 287 284 296 296 300 301 299 298 301 304 306 310 316 319 318 325 335 333 334 337 337 329 324 322 316 272 194 186 181 182 185 182 179 171 128 59 31
266 263 267 271 272 276 278 281 286 288 287 292 291 294 296 293 294 296 298 302 304 307 310 317 316 317 319 318 321 319 325 317 252 209 195 187 184 182 182 183 174 156 99 35
270 265 266 271 275 284 285 281 280 281 285 287 288 290 291 291 290 293 294 296 299 299 301 303 306 309 310 312 312 318 306 284 259 232 210 197 194 187 185 187 178 168 108 49
268 270 269 274 280 281 282 286 286 282 282 285 286 290 292 292 293 297 297 298 299 298 299 296 300 304 306 304 300 296 274 265 247 235 222 210 205 198 196 190 181 149 103 50